Clinton, AR

9:29 AM CDT on October 22, 2019 (GMT -0500)
Clinton

Weather History for KCCA - September, 2019

Change the Weather History Date:

Wednesday, September 18, 2019

  Actual Average (WUND) Record (WUND)
Temperature  
Mean Temperature 80 °F -  
Max Temperature 96 °F - - (-1)
Min Temperature 64 °F - - (-1)
Cooling Degree Days 15    
Growing Degree Days 30 (Base 50)    
Moisture  
Dew Point 68 °F    
Average Humidity 76    
Maximum Humidity 100    
Minimum Humidity 34    
Precipitation  
Precipitation 0.00 in - - ()
Sea Level Pressure  
Sea Level Pressure 30.00 in    
Wind  
Wind Speed 0 mph ()    
Max Wind Speed 6 mph    
Max Gust Speed -    
Visibility 9.7 miles    
Events      
Averages and records for this station are not official NWS values.
T = Trace of Precipitation, MM = Missing Value Source: Averaged Metar Reports

Daily Weather History Graph

Daily Weather History Graph

Search for Another Location

Airport or City:

Astronomy

Sep. 18, 2019 Rise Set
Actual Time 6:54 AM CDT 7:12 PM CDT
Civil Twilight 6:29 AM CDT 7:38 PM CDT
Nautical Twilight 5:59 AM CDT 8:08 PM CDT
Astronomical Twilight 5:28 AM CDT 8:38 PM CDT
Moon 9:55 PM CDT (9/18) 10:50 AM CDT (9/18)
Length of Visible Light 13h 09m
Length of Day
12h 18m
Waning Gibbous, 82% of the Moon is Illuminated
Sep 18
Waning Gibbous
Sep 21
Last Quarter
Sep 28
New
Oct 5
First Quarter
Oct 13
Full

Hourly Weather History & Observations

Time (CDT) Temp. Heat Index Dew Point Humidity Pressure Visibility Wind Dir Wind Speed Gust Speed Precip Events Conditions
12:15 AM 69.8 °F - 68.0 °F 94% 30.01 in 10.0 mi Calm Calm - N/A   Scattered Clouds
12:35 AM 69.8 °F - 68.0 °F 94% 30.01 in 10.0 mi Calm Calm - N/A   Mostly Cloudy
12:55 AM 68.0 °F - 68.0 °F 100% 30.01 in 10.0 mi Calm Calm - N/A   Overcast
1:35 AM 68.0 °F - 68.0 °F 100% 30.02 in 10.0 mi Calm Calm - N/A   Overcast
1:55 AM 68.0 °F - 66.2 °F 94% 30.02 in 10.0 mi Calm Calm - N/A   Overcast
2:15 AM 68.0 °F - 66.2 °F 94% 30.01 in 10.0 mi Calm Calm - N/A   Mostly Cloudy
2:35 AM 68.0 °F - 66.2 °F 94% 30.01 in 10.0 mi Calm Calm - N/A   Partly Cloudy
2:55 AM 68.0 °F - 66.2 °F 94% 30.01 in 10.0 mi Calm Calm - N/A   Clear
3:15 AM 68.0 °F - 66.2 °F 94% 30.01 in 10.0 mi Calm Calm - N/A   Mostly Cloudy
3:55 AM 66.2 °F - 66.2 °F 100% 30.01 in 10.0 mi Calm Calm - N/A   Overcast
4:15 AM 66.2 °F - 66.2 °F 100% 30.01 in 10.0 mi Calm Calm - N/A   Overcast
4:35 AM 66.2 °F - 66.2 °F 100% 30.01 in 10.0 mi Calm Calm - N/A   Overcast
4:55 AM 66.2 °F - 66.2 °F 100% 30.01 in 10.0 mi Calm Calm - N/A   Mostly Cloudy
5:15 AM 66.2 °F - 64.4 °F 94% 30.00 in 10.0 mi Calm Calm - N/A   Scattered Clouds
5:35 AM 66.2 °F - 64.4 °F 94% 30.01 in 6.0 mi Calm Calm - N/A   Mostly Cloudy
5:55 AM 66.2 °F - 64.4 °F 94% 30.01 in 10.0 mi Calm Calm - N/A   Mostly Cloudy
6:55 AM 64.4 °F - 64.4 °F 100% 30.03 in 10.0 mi Calm Calm - N/A   Clear
7:15 AM 64.4 °F - 64.4 °F 100% 30.03 in 7.0 mi Calm Calm - N/A   Clear
7:35 AM 66.2 °F - 64.4 °F 94% 30.03 in 9.0 mi Calm Calm - N/A   Clear
7:55 AM 68.0 °F - 66.2 °F 94% 30.04 in 10.0 mi Calm Calm - N/A   Clear
8:15 AM 68.0 °F - 66.2 °F 94% 30.04 in 10.0 mi Calm Calm - N/A   Clear
8:35 AM 71.6 °F - 68.0 °F 88% 30.04 in 10.0 mi Calm Calm - N/A   Clear
8:55 AM 73.4 °F - 68.0 °F 83% 30.04 in 10.0 mi Calm Calm - N/A   Clear
9:15 AM 75.2 °F - 68.0 °F 78% 30.04 in 10.0 mi Calm Calm - N/A   Clear
9:35 AM 77.0 °F - 69.8 °F 78% 30.04 in 10.0 mi Calm Calm - N/A   Clear
9:55 AM 78.8 °F - 69.8 °F 74% 30.05 in 10.0 mi Calm Calm - N/A   Clear
10:15 AM 82.4 °F 86.3 °F 69.8 °F 66% 30.05 in 10.0 mi Calm Calm - N/A   Clear
11:35 AM 89.6 °F 94.7 °F 69.8 °F 52% 30.03 in 10.0 mi SSE 4.6 mph - N/A   Clear
11:55 AM 89.6 °F 94.7 °F 69.8 °F 52% 30.03 in 10.0 mi Calm Calm - N/A   Clear
12:55 PM 93.2 °F 96.2 °F 66.2 °F 41% 30.02 in 10.0 mi WSW 4.6 mph - N/A   Clear
1:15 PM 93.2 °F 96.2 °F 66.2 °F 41% 30.01 in 10.0 mi Calm Calm - N/A   Clear
1:35 PM 93.2 °F 96.2 °F 66.2 °F 41% 30.00 in 10.0 mi Variable 5.8 mph - N/A   Clear
1:55 PM 95.0 °F 98.5 °F 66.2 °F 39% 30.00 in 10.0 mi Variable 5.8 mph - N/A   Clear
2:35 PM 93.2 °F 96.2 °F 66.2 °F 41% 29.98 in 10.0 mi East 3.5 mph - N/A   Mostly Cloudy
2:55 PM 93.2 °F 96.2 °F 66.2 °F 41% 29.97 in 10.0 mi Calm Calm - N/A   Scattered Clouds
3:15 PM 93.2 °F 94.9 °F 64.4 °F 38% 29.96 in 10.0 mi Calm Calm - N/A   Partly Cloudy
3:55 PM 96.8 °F 99.0 °F 64.4 °F 34% 29.96 in 10.0 mi Variable 5.8 mph - N/A   Clear
4:15 PM 95.0 °F 97.0 °F 64.4 °F 36% 29.96 in 10.0 mi SSE 4.6 mph - N/A   Partly Cloudy
4:35 PM 95.0 °F 97.0 °F 64.4 °F 36% 29.95 in 10.0 mi Calm Calm - N/A   Clear
4:55 PM 95.0 °F 97.0 °F 64.4 °F 36% 29.95 in 10.0 mi Calm Calm - N/A   Clear
5:15 PM 95.0 °F 98.5 °F 66.2 °F 39% 29.95 in 10.0 mi Calm Calm - N/A   Clear
5:35 PM 95.0 °F 98.5 °F 66.2 °F 39% 29.95 in 10.0 mi Calm Calm - N/A   Clear
5:55 PM 93.2 °F 98.8 °F 69.8 °F 46% 29.95 in 10.0 mi Calm Calm - N/A   Clear
6:15 PM 91.4 °F 98.4 °F 71.6 °F 52% 29.95 in 10.0 mi Calm Calm - N/A   Clear
6:35 PM 87.8 °F 93.8 °F 71.6 °F 58% 29.96 in 10.0 mi Calm Calm - N/A   Clear
6:55 PM 84.2 °F 90.9 °F 73.4 °F 70% 29.96 in 10.0 mi Calm Calm - N/A   Clear
7:15 PM 82.4 °F 88.2 °F 73.4 °F 74% 29.96 in 2.0 mi Calm Calm - N/A   Haze
7:35 PM 80.6 °F 84.6 °F 71.6 °F 74% 29.96 in 10.0 mi Calm Calm - N/A   Clear
7:55 PM 78.8 °F - 73.4 °F 83% 29.97 in 10.0 mi Calm Calm - N/A   Clear
8:15 PM 77.0 °F - 73.4 °F 89% 29.97 in 10.0 mi Calm Calm - N/A   Clear
8:35 PM 75.2 °F - 73.4 °F 94% 29.97 in 10.0 mi Calm Calm - N/A   Clear
8:55 PM 75.2 °F - 71.6 °F 89% 29.98 in 10.0 mi Calm Calm - N/A   Clear
9:15 PM 73.4 °F - 71.6 °F 94% 29.99 in 10.0 mi Calm Calm - N/A   Clear
9:55 PM 73.4 °F - 69.8 °F 88% 29.99 in 10.0 mi Calm Calm - N/A   Clear
10:15 PM 71.6 °F - 69.8 °F 94% 29.99 in 10.0 mi Calm Calm - N/A   Clear
10:35 PM 71.6 °F - 69.8 °F 94% 29.99 in 10.0 mi Calm Calm - N/A   Clear
10:55 PM 71.6 °F - 69.8 °F 94% 29.99 in 10.0 mi Calm Calm - N/A   Partly Cloudy
11:15 PM 71.6 °F - 69.8 °F 94% 29.99 in 10.0 mi Calm Calm - N/A   Partly Cloudy
11:35 PM 69.8 °F - 68.0 °F 94% 30.00 in 10.0 mi Calm Calm - N/A   Scattered Clouds
11:55 PM 69.8 °F - 68.0 °F 94% 30.00 in 10.0 mi Calm Calm - N/A   Mostly Cloudy